• In Österreich
  • Länderverzeichnis
  • Für 7 Tage
  • Wassertemperatur
  • Satellitenkarten
  • Wetterkarte
  • News
  • Widgets
  • user-avatar
    Anmelden

    Stündliche Wetter Shaki

    Heute, 18 August, Samstag

    Zeit Temperatur Niederschläge Wind Luftdruck Luftfeuchtigkeit
    00:00 +27°C° 0 mm 3 m/S 731 mmHg 50%
    01:00 +26°C° 0 mm 2 m/S 731 mmHg 51%
    02:00 +26°C° 0 mm 2 m/S 731 mmHg 51%
    03:00 +25°C° 0 mm 2 m/S 731 mmHg 54%
    04:00 +25°C° 0,1 mm 2 m/S 731 mmHg 55%
    05:00 +25°C° 0,1 mm 1 m/S 731 mmHg 55%
    06:00 +26°C° 0,1 mm 1 m/S 731 mmHg 56%
    07:00 +27°C° 0 mm 1 m/S 731 mmHg 52%
    08:00 +29°C° 0 mm 2 m/S 731 mmHg 48%
    09:00 +30°C° 0 mm 2 m/S 731 mmHg 45%
    10:00 +31°C° 0,1 mm 2 m/S 731 mmHg 42%
    11:00 +32°C° 0,1 mm 2 m/S 731 mmHg 39%
    12:00 +34°C° 0,1 mm 2 m/S 730 mmHg 37%
    13:00 +35°C° 0,3 mm 2 m/S 730 mmHg 35%
    14:00 +35°C° 0,3 mm 2 m/S 730 mmHg 34%
    15:00 +36°C° 0,3 mm 2 m/S 730 mmHg 32%
    16:00 +35°C° 0,3 mm 2 m/S 730 mmHg 34%
    17:00 +34°C° 0,3 mm 2 m/S 730 mmHg 37%
    18:00 +34°C° 0,3 mm 2 m/S 730 mmHg 39%
    19:00 +31°C° 0,1 mm 3 m/S 730 mmHg 42%
    20:00 +30°C° 0,1 mm 3 m/S 731 mmHg 46%
    21:00 +28°C° 0,1 mm 3 m/S 731 mmHg 49%
    22:00 +28°C° 0 mm 3 m/S 731 mmHg 52%
    23:00 +27°C° 0 mm 3 m/S 731 mmHg 55%

    Morgen, 19 August, Sonntag

    Zeit Temperatur Niederschläge Wind Luftdruck Luftfeuchtigkeit
    00:00 +27°C° 0 mm 3 m/S 731 mmHg 57%
    01:00 +26°C° 0,3 mm 2 m/S 731 mmHg 59%
    02:00 +26°C° 0,3 mm 2 m/S 731 mmHg 61%
    03:00 +26°C° 0,3 mm 2 m/S 731 mmHg 63%
    04:00 +26°C° 0,3 mm 2 m/S 731 mmHg 63%
    05:00 +26°C° 0,3 mm 2 m/S 732 mmHg 62%
    06:00 +26°C° 0,3 mm 1 m/S 732 mmHg 62%
    07:00 +27°C° 0,1 mm 2 m/S 732 mmHg 58%
    08:00 +28°C° 0,1 mm 2 m/S 732 mmHg 54%
    09:00 +29°C° 0,1 mm 2 m/S 732 mmHg 50%
    10:00 +30°C° 0 mm 2 m/S 732 mmHg 46%
    11:00 +31°C° 0 mm 2 m/S 732 mmHg 42%
    12:00 +32°C° 0 mm 2 m/S 732 mmHg 39%
    13:00 +32°C° 0 mm 2 m/S 731 mmHg 38%
    14:00 +34°C° 0 mm 2 m/S 731 mmHg 37%
    15:00 +34°C° 0 mm 2 m/S 731 mmHg 36%
    16:00 +32°C° 0,1 mm 2 m/S 732 mmHg 38%
    17:00 +31°C° 0,1 mm 2 m/S 732 mmHg 41%
    18:00 +31°C° 0,1 mm 2 m/S 732 mmHg 43%
    19:00 +30°C° 0 mm 3 m/S 732 mmHg 45%
    20:00 +28°C° 0 mm 4 m/S 733 mmHg 48%
    21:00 +27°C° 0 mm 5 m/S 734 mmHg 50%
    22:00 +27°C° 0 mm 4 m/S 734 mmHg 52%
    23:00 +26°C° 0 mm 4 m/S 734 mmHg 54%

    übermorgen, 20 August, Montag

    Zeit Temperatur Niederschläge Wind Luftdruck Luftfeuchtigkeit
    00:00 +25°C° 0 mm 4 m/S 734 mmHg 56%
    01:00 +25°C° 0 mm 4 m/S 734 mmHg 59%
    02:00 +25°C° 0 mm 4 m/S 734 mmHg 61%
    03:00 +23°C° 0 mm 4 m/S 734 mmHg 63%
    04:00 +23°C° 0 mm 4 m/S 735 mmHg 65%
    05:00 +24°C° 0 mm 3 m/S 735 mmHg 67%
    06:00 +24°C° 0 mm 3 m/S 735 mmHg 69%
    07:00 +23°C° 0,1 mm 4 m/S 735 mmHg 65%
    08:00 +25°C° 0,1 mm 4 m/S 736 mmHg 62%
    09:00 +26°C° 0,1 mm 4 m/S 736 mmHg 59%
    10:00 +27°C° 0,1 mm 4 m/S 736 mmHg 55%
    11:00 +28°C° 0,1 mm 5 m/S 736 mmHg 50%
    12:00 +29°C° 0,1 mm 5 m/S 736 mmHg 46%
    13:00 +29°C° 0 mm 5 m/S 736 mmHg 45%
    14:00 +30°C° 0 mm 5 m/S 736 mmHg 43%
    15:00 +30°C° 0 mm 5 m/S 735 mmHg 41%
    16:00 +30°C° 0 mm 5 m/S 735 mmHg 43%
    17:00 +29°C° 0 mm 5 m/S 736 mmHg 44%
    18:00 +28°C° 0 mm 5 m/S 736 mmHg 46%
    19:00 +27°C° 0 mm 4 m/S 736 mmHg 50%
    20:00 +25°C° 0 mm 4 m/S 736 mmHg 55%
    21:00 +23°C° 0 mm 4 m/S 737 mmHg 59%
    22:00 +22°C° 0 mm 4 m/S 736 mmHg 61%
    23:00 +22°C° 0 mm 3 m/S 736 mmHg 63%

    21 August, Dienstag

    Zeit Temperatur Niederschläge Wind Luftdruck Luftfeuchtigkeit
    00:00 +21°C° 0 mm 3 m/S 736 mmHg 65%
    01:00 +21°C° 0 mm 3 m/S 736 mmHg 66%
    02:00 +21°C° 0 mm 2 m/S 736 mmHg 67%
    03:00 +21°C° 0 mm 2 m/S 736 mmHg 67%
    04:00 +21°C° 0 mm 2 m/S 736 mmHg 66%
    05:00 +22°C° 0 mm 1 m/S 736 mmHg 65%
    06:00 +22°C° 0 mm 1 m/S 736 mmHg 64%
    07:00 +24°C° 0 mm 1 m/S 736 mmHg 59%
    08:00 +25°C° 0 mm 2 m/S 736 mmHg 54%
    09:00 +27°C° 0 mm 2 m/S 736 mmHg 50%
    10:00 +28°C° 0 mm 2 m/S 736 mmHg 46%
    11:00 +29°C° 0 mm 2 m/S 735 mmHg 43%
    12:00 +30°C° 0 mm 2 m/S 735 mmHg 40%
    13:00 +31°C° 0 mm 2 m/S 735 mmHg 39%
    14:00 +31°C° 0 mm 2 m/S 734 mmHg 37%
    15:00 +32°C° 0 mm 2 m/S 734 mmHg 36%
    16:00 +31°C° 0 mm 2 m/S 734 mmHg 38%
    17:00 +30°C° 0 mm 2 m/S 734 mmHg 40%
    18:00 +30°C° 0 mm 2 m/S 734 mmHg 43%
    19:00 +28°C° 0 mm 2 m/S 735 mmHg 45%
    20:00 +27°C° 0 mm 2 m/S 735 mmHg 48%
    21:00 +26°C° 0 mm 2 m/S 736 mmHg 51%
    22:00 +25°C° 0 mm 2 m/S 736 mmHg 51%
    23:00 +25°C° 0 mm 2 m/S 736 mmHg 51%

    22 August, Mittwoch

    Zeit Temperatur Niederschläge Wind Luftdruck Luftfeuchtigkeit
    00:00 +24°C° 0 mm 2 m/S 735 mmHg 51%
    01:00 +24°C° 0 mm 2 m/S 735 mmHg 50%
    02:00 +23°C° 0 mm 2 m/S 735 mmHg 49%
    03:00 +23°C° 0 mm 1 m/S 735 mmHg 48%
    04:00 +23°C° 0 mm 1 m/S 735 mmHg 48%
    05:00 +24°C° 0 mm 1 m/S 736 mmHg 47%
    06:00 +24°C° 0 mm 1 m/S 736 mmHg 46%
    07:00 +26°C° 0 mm 1 m/S 736 mmHg 42%
    08:00 +27°C° 0 mm 1 m/S 736 mmHg 39%
    09:00 +29°C° 0 mm 2 m/S 736 mmHg 35%
    10:00 +30°C° 0 mm 2 m/S 736 mmHg 34%
    11:00 +31°C° 0 mm 2 m/S 735 mmHg 32%
    12:00 +32°C° 0 mm 2 m/S 735 mmHg 31%
    13:00 +34°C° 0 mm 2 m/S 735 mmHg 30%
    14:00 +34°C° 0 mm 2 m/S 735 mmHg 29%
    15:00 +34°C° 0 mm 2 m/S 735 mmHg 29%
    16:00 +34°C° 0 mm 2 m/S 735 mmHg 31%
    17:00 +32°C° 0 mm 2 m/S 735 mmHg 33%
    18:00 +31°C° 0 mm 2 m/S 735 mmHg 36%
    19:00 +30°C° 0 mm 3 m/S 735 mmHg 39%
    20:00 +28°C° 0 mm 3 m/S 736 mmHg 42%
    21:00 +27°C° 0 mm 3 m/S 736 mmHg 45%
    22:00 +26°C° 0 mm 3 m/S 736 mmHg 47%
    23:00 +25°C° 0 mm 3 m/S 736 mmHg 49%

    23 August, Donnerstag

    Zeit Temperatur Niederschläge Wind Luftdruck Luftfeuchtigkeit
    00:00 +25°C° 0 mm 3 m/S 736 mmHg 51%
    01:00 +24°C° 0 mm 2 m/S 736 mmHg 51%
    02:00 +24°C° 0 mm 2 m/S 736 mmHg 52%
    03:00 +24°C° 0 mm 2 m/S 736 mmHg 52%
    04:00 +24°C° 0 mm 1 m/S 736 mmHg 52%
    05:00 +24°C° 0 mm 1 m/S 736 mmHg 51%
    06:00 +24°C° 0 mm 1 m/S 736 mmHg 51%
    07:00 +26°C° 0 mm 1 m/S 736 mmHg 45%
    08:00 +28°C° 0 mm 2 m/S 736 mmHg 40%
    09:00 +30°C° 0 mm 2 m/S 736 mmHg 35%
    10:00 +31°C° 0 mm 2 m/S 736 mmHg 33%
    11:00 +32°C° 0 mm 2 m/S 735 mmHg 30%
    12:00 +34°C° 0 mm 3 m/S 735 mmHg 28%
    13:00 +34°C° 0 mm 3 m/S 735 mmHg 27%
    14:00 +35°C° 0 mm 3 m/S 734 mmHg 26%
    15:00 +35°C° 0 mm 3 m/S 734 mmHg 25%
    16:00 +34°C° 0 mm 3 m/S 734 mmHg 27%
    17:00 +33°C° 0 mm 3 m/S 734 mmHg 29%
    18:00 +31°C° 0 mm 3 m/S 735 mmHg 31%
    19:00 +30°C° 0 mm 4 m/S 735 mmHg 33%
    20:00 +28°C° 0 mm 4 m/S 735 mmHg 36%
    21:00 +26°C° 0 mm 4 m/S 736 mmHg 38%
    22:00 +26°C° 0 mm 3 m/S 735 mmHg 39%
    23:00 +25°C° 0 mm 3 m/S 735 mmHg 40%
    Mehr zeigen